Location: Newark
(45.5000°N, 11.4167°E)
Time: 22:55:16
(UTC+00:00)

Vanguard 2 - Pass Details

Date: 27 August 2019
Orbit: 554 x 2937 km, 32.9° (Epoch: 22 September)

Event Time Altitude Azimuth Distance (km) Brightness Sun altitude
Rises 10:52:35 0° 224° (SW) 2,951 10.8 54.2°
Reaches altitude 10° 10:55:08 10° 207° (SSW) 2,224 10.5 54.3°
Maximum altitude 10:58:56 21° 158° (SSE) 1,909 10.6 54.4°
Drops below altitude 10° 11:04:00 10° 113° (ESE) 3,077 11.0 54.5°
Sets 11:08:19 0° 100° (E) 4,509 11.6 54.5°
